Home   Weather   Worb   Past weeks

Flag for Switzerland Past Weather in Worb, Bern, Switzerland — Yesterday and Last 2 Weeks

Now
18 °F

Scattered clouds.


Feels Like: 18 °F
Forecast: 19 / 22 °F
Wind: 2 mph from North

Location: Bern / Belp

Current Time: Jan 16, 2017 at 11:58:16 am

Latest Report: Jan 16, 2017 at 11:20 am


Visibility: N/A

Pressure: 30.15 "Hg (27.97 "Hg at 583m altitude)

Humidity: 93%

Dew Point: 16 °F

Location of WorbLocation

Past Weather in Worb — Graph

°F

Worb Temperature Yesterday

Maximum temperature yesterday: 32 °F (at 1:20 pm)
Minimum temperature yesterday: 18 °F (at 10:20 pm)
Average temperature yesterday: 25 °F

High & Low Weather Summary for the Past Weeks

 TemperatureHumidityPressure
High45 °F (Jan 12, 5:50 am)100% (Jan 1, 10:50 am)30.57 "Hg (Jan 1, 10:50 am)
Low1 °F (Jan 6, 8:20 am)56% (Jan 4, 1:20 pm)29.53 "Hg (Jan 12, 11:20 pm)
Average26 °F87%30.15 "Hg
* Reported Jan 1 10:20 am — Jan 16 10:50 am, Worb, Weather by CustomWeather, © 2017

Note: Actual official high and low records may vary slightly from our data, if they occured in-between our weather recording intervals... More about our weather records

Advertising

Worb Weather History for the Previous 24 Hours

Scroll right to see more
 ConditionsComfort  
Time TempWeatherWind HumidityBarometerVisibility
10:50 am
Mon, Jan 16
18 °FBroken clouds.2 mph93%30.15 "HgN/A
10:20 am16 °FLight snow. Broken clouds.2 mph93%30.15 "Hg5 mi
9:50 am14 °FLight snow. Partly sunny.1 mph85%30.15 "HgN/A
9:20 am7 °FScattered clouds.1 mph92%30.12 "HgN/A
8:50 am5 °FFog.3 mph85%30.12 "HgN/A
8:20 am7 °FScattered clouds.2 mph92%30.12 "HgN/A
7:50 am1 °FFog.2 mph92%30.12 "Hg5 mi
7:20 am5 °FLight fog.1 mph85%30.12 "Hg3 mi
6:50 am5 °FIce fog.2 mph92%30.12 "Hg3 mi
6:20 am5 °FLight fog.2 mph85%30.09 "Hg3 mi
5:50 am7 °FIce fog.1 mph85%30.09 "Hg1 mi
5:20 am10 °FIce fog.1 mph92%30.09 "Hg0 mi
4:50 am10 °FIce fog.3 mph92%30.09 "Hg1 mi
4:20 am9 °FFrigid.6 mph85%30.09 "Hg5 mi
3:50 am14 °FIce fog.2 mph92%30.12 "Hg1 mi
3:20 am14 °FPassing clouds.1 mph92%30.12 "Hg3 mi
2:50 am12 °FIce fog.3 mph92%30.12 "Hg1 mi
2:20 am14 °FIce fog.2 mph92%30.12 "Hg0 mi
1:20 am14 °FIce fog.1 mph100%30.12 "Hg0 mi
12:50 am14 °FIce fog.1 mph92%30.12 "Hg0 mi
12:20 am16 °FIce fog.2 mph93%30.12 "Hg0 mi
11:50 pm
Sun, Jan 15
19 °FIce fog.5 mph100%30.15 "Hg0 mi
11:20 pm18 °FLow clouds.5 mph100%30.15 "Hg4 mi
10:50 pm18 °FIce fog.1 mph93%30.15 "Hg3 mi
10:20 pm18 °FPartly cloudy.3 mph93%30.15 "HgN/A
9:50 pm19 °FPartly cloudy.2 mph93%30.15 "HgN/A
9:20 pm21 °FPartly cloudy.1 mph93%30.15 "HgN/A
8:50 pm23 °FPassing clouds.2 mph100%30.15 "HgN/A
8:20 pm21 °FPassing clouds.1 mph93%30.15 "HgN/A
7:50 pm25 °FPartly cloudy.3 mph93%30.15 "HgN/A
7:20 pm27 °FMostly cloudy.5 mph100%30.15 "HgN/A
6:50 pm27 °FLight snow. Overcast.5 mph93%30.15 "HgN/A
6:20 pm28 °FLight snow. Partly cloudy.3 mph93%30.15 "Hg2 mi
5:50 pm28 °FSnow showers. Partly cloudy.2 mph86%30.15 "Hg1 mi
5:20 pm28 °FLight snow. Partly cloudy.3 mph86%30.15 "HgN/A
4:50 pm28 °FBroken clouds.2 mph86%30.15 "HgN/A
4:20 pm30 °FBroken clouds.5 mph80%30.15 "HgN/A
3:50 pm30 °FBroken clouds.No wind80%30.15 "HgN/A
3:20 pm30 °FBroken clouds.2 mph80%30.15 "HgN/A
2:50 pm28 °FLight snow. Broken clouds.5 mph93%30.15 "Hg4 mi
2:20 pm32 °FLight snow. Broken clouds.1 mph69%30.15 "HgN/A
1:50 pm32 °FPartly sunny.2 mph69%30.15 "Hg5 mi
1:20 pm32 °FPartly sunny.2 mph75%30.15 "Hg5 mi
12:50 pm28 °FPartly sunny.1 mph80%30.15 "HgN/A
12:20 pm30 °FPartly sunny.5 mph75%30.15 "HgN/A
11:50 am28 °FPartly sunny.6 mph80%30.15 "HgN/A
11:20 am28 °FPartly sunny.5 mph80%30.15 "HgN/A
Weather by CustomWeather, © 2017

See weather overviewHow to use our weather pages